Wind_Speed
18 18 19 20 19 18 19 18 18 18 19 19 19 19 19 21 21 22 21 21 21 21 22 22 22 22 22 23 23 24 24 25 25 25 26 26 27 28
18 17 18 19 19 19 19 18 18 19 19 20 20 20 19 20 20 20 21 21 21 21 21 21 21 22 22 22 23 23 24 24 25 26 26 27 27 28
17 17 17 17 18 18 18 18 18 19 20 20 21 21 20 20 20 20 20 20 21 21 21 21 20 21 22 22 23 23 23 24 25 26 26 28 28 29
17 16 16 16 17 17 18 18 19 19 19 20 21 21 20 20 20 20 21 21 21 22 22 22 22 21 22 22 23 24 24 25 25 26 27 28 28 28
16 16 15 16 17 17 18 19 19 19 19 20 19 20 20 20 20 20 20 20 21 21 22 22 22 22 22 22 22 23 24 25 26 26 26 27 27 27
15 16 16 16 16 17 18 18 19 18 19 19 19 20 20 20 20 21 21 21 21 21 21 22 22 22 23 23 24 24 25 25 26 27 27 27 27 28
16 17 17 17 17 17 17 18 18 18 19 19 20 20 20 20 21 21 21 21 21 21 22 23 23 24 24 24 25 26 26 26 27 27 27 28 28 28
16 17 17 17 17 17 17 17 17 17 18 19 20 19 19 19 20 20 21 21 21 22 23 23 24 24 24 24 24 25 25 26 27 27 27 27 27 28
16 16 17 17 17 17 17 17 17 18 19 20 19 19 19 19 19 20 20 20 21 21 22 22 23 23 24 24 25 25 25 26 26 26 26 26 27 28
16 16 17 17 17 17 17 18 19 19 19 19 20 20 19 20 20 20 21 21 21 22 22 22 23 24 24 24 24 24 25 26 27 27 26 26 27 27
16 17 16 16 16 17 18 19 20 20 20 20 20 20 20 21 21 22 22 22 23 23 23 23 23 24 24 25 25 25 25 26 26 26 26 26 26 27
16 16 16 16 17 17 18 18 20 20 20 21 21 21 21 22 22 23 23 23 23 24 24 25 25 25 24 25 26 27 27 26 27 27 27 27 26 27
16 16 16 17 17 18 18 18 19 19 20 21 22 22 22 22 23 24 24 25 25 25 25 26 26 26 26 26 27 27 28 28 27 27 27 27 27 26
16 16 17 17 17 18 18 18 19 20 20 21 21 22 22 23 24 25 25 26 26 26 26 26 26 26 26 27 27 27 28 28 27 27 27 27 27 27
17 17 17 18 18 18 19 19 20 20 21 21 21 22 22 23 24 24 25 26 26 26 26 26 27 27 27 28 28 28 28 28 27 27 26 26 26 26
18 18 18 18 19 20 20 20 20 20 20 20 20 21 21 22 22 23 24 25 25 26 27 27 27 27 27 28 28 28 27 27 27 28 28 27 26 26
19 19 19 19 20 20 19 19 18 18 19 20 20 21 21 21 22 23 24 24 25 25 26 26 27 27 27 27 27 26 26 26 26 27 27 27 26 26
19 19 19 19 19 18 18 18 17 17 18 19 20 21 21 21 22 23 23 23 23 24 24 25 25 25 24 25 25 25 25 25 25 25 25 25 25 26
17 18 18 18 18 18 18 18 18 18 19 19 20 21 22 22 22 22 22 23 23 23 23 23 23 23 23 23 24 24 24 24 24 24 24 24 24 25
17 16 17 17 18 18 18 17 17 18 19 19 20 20 21 21 22 22 22 22 22 22 22 22 22 22 23 23 24 24 24 24 24 24 25 26 26 26
16 16 17 17 17 17 17 17 17 18 19 19 20 20 20 21 22 22 22 22 22 22 22 22 22 23 23 24 24 24 25 25 25 25 25 26 26 26
17 17 16 16 16 17 17 17 17 18 18 19 19 19 20 20 21 22 22 22 22 22 22 22 23 23 24 25 25 25 26 26 26 26 26 26 26 26
17 17 17 17 17 17 17 18 18 18 19 19 19 19 20 21 21 22 21 22 22 22 22 23 23 24 24 25 25 25 25 26 26 25 25 25 25 25
Wind_Direction
272 270 269 266 263 263 263 263 262 259 257 258 257 259 261 261 262 260 259 257 257 258 259 259 261 262 264 266 269 270 270 269 267 266 267 270 272 273
274 272 269 266 263 262 263 264 263 263 261 260 260 259 260 262 264 263 261 259 262 263 263 261 262 262 264 267 270 270 269 270 272 270 269 270 273 275
272 271 268 265 264 263 264 266 264 264 264 261 261 261 262 261 263 263 262 264 264 264 265 264 264 264 266 268 268 270 271 271 272 272 272 273 274 274
273 271 267 266 264 263 264 265 265 265 265 264 262 261 261 261 262 262 262 264 265 265 266 265 267 269 272 271 272 271 272 273 273 273 275 276 277 277
273 269 268 268 266 268 268 267 266 266 265 266 264 263 262 262 263 262 264 266 267 267 267 268 268 271 273 273 274 275 275 276 277 276 277 278 278 280
272 269 267 267 269 271 271 269 267 265 266 266 265 263 262 261 262 264 267 269 270 268 267 267 268 270 272 273 276 278 279 280 281 280 279 278 279 280
274 270 268 266 268 272 271 270 268 266 265 267 267 266 264 264 267 268 269 269 270 270 269 268 268 268 271 273 275 277 278 279 281 281 281 280 281 282
278 273 269 268 268 269 268 268 267 266 267 269 270 269 268 268 270 270 269 268 269 271 271 271 271 272 274 276 278 278 279 281 282 283 283 282 282 283
278 274 268 267 268 269 268 267 268 269 270 268 268 268 268 270 272 271 270 269 269 270 271 272 273 273 275 278 279 279 280 282 284 283 283 282 282 283
276 277 270 266 268 267 269 268 270 270 270 269 268 268 269 270 273 274 271 271 271 272 274 275 276 276 277 279 282 284 284 284 284 282 283 283 283 284
276 275 274 270 268 270 272 272 271 271 270 269 268 270 269 270 272 273 273 274 274 274 274 277 280 281 281 282 282 284 286 287 286 285 283 283 284 285
279 277 276 274 272 272 273 274 273 272 271 270 268 269 271 271 273 274 274 275 275 275 276 278 280 281 281 282 284 285 285 286 285 284 284 285 287 287
281 279 278 278 275 273 274 276 275 273 270 270 270 270 272 273 275 276 275 275 275 275 276 279 281 280 280 281 282 285 286 286 285 285 285 285 287 287
282 279 277 277 277 277 276 278 276 273 272 272 272 273 274 275 275 275 275 276 276 276 276 278 279 280 281 282 283 285 286 287 285 284 283 285 286 287
282 280 279 277 278 280 282 280 278 276 274 273 274 273 275 275 275 275 276 277 277 277 277 277 278 279 281 282 283 284 285 284 284 283 284 284 286 287
278 277 277 278 279 281 281 281 280 279 278 277 275 273 273 275 278 278 279 279 278 275 276 277 277 279 280 281 283 284 285 283 284 284 286 286 286 288
279 278 278 278 279 279 280 282 281 280 278 278 278 278 277 278 280 279 280 282 282 279 277 277 277 278 279 281 283 285 285 284 284 285 287 287 287 286
280 281 280 279 280 279 279 279 279 279 280 281 279 278 280 282 284 282 281 282 283 282 280 280 279 279 281 284 286 288 287 286 287 288 289 289 288 289
282 283 282 282 281 282 281 280 280 280 281 282 280 281 282 284 284 283 284 285 285 285 283 282 282 281 283 285 286 287 288 288 288 289 291 292 292 291
283 285 285 284 283 284 284 283 283 282 283 284 284 285 286 286 285 285 285 286 288 286 284 282 283 284 284 285 285 286 288 289 290 289 290 292 294 294
282 284 285 285 285 285 285 284 283 282 283 285 286 285 286 288 289 287 286 286 287 286 284 282 282 283 284 284 286 287 289 290 290 290 290 292 293 294
280 283 284 285 286 286 285 286 286 284 284 285 285 285 286 289 290 290 288 287 286 285 284 284 284 285 285 286 287 288 290 291 291 291 291 292 293 295
278 278 280 283 286 287 286 287 287 286 285 285 285 287 289 291 291 290 289 289 289 287 285 285 286 286 286 287 288 289 291 291 291 291 291 293 294 295
Height
5798 5797 5797 5797 5798 5799 5801 5801 5802 5803 5804 5804 5805 5805 5805 5805 5806 5807 5808 5809 5809 5810 5810 5811 5812 5812 5813 5813 5813 5813 5813 5812 5812 5812 5812 5812 5811 5811
5792 5792 5792 5792 5793 5794 5795 5796 5797 5798 5799 5799 5799 5800 5800 5800 5801 5801 5802 5803 5803 5804 5804 5805 5806 5806 5806 5807 5807 5806 5806 5806 5805 5805 5805 5805 5804 5803
5787 5787 5787 5787 5788 5789 5790 5791 5791 5792 5793 5794 5794 5794 5795 5795 5796 5796 5797 5797 5798 5798 5799 5799 5800 5800 5800 5800 5800 5800 5800 5799 5799 5798 5798 5797 5796 5796
5782 5782 5783 5783 5784 5784 5785 5786 5786 5787 5787 5788 5789 5789 5790 5790 5791 5791 5791 5791 5792 5793 5793 5793 5794 5794 5794 5794 5794 5794 5793 5792 5792 5791 5790 5790 5789 5787
5778 5778 5779 5779 5780 5780 5780 5780 5781 5781 5782 5783 5783 5784 5785 5785 5786 5786 5786 5786 5786 5787 5787 5788 5788 5788 5787 5787 5787 5787 5786 5786 5785 5784 5783 5782 5780 5779
5774 5775 5775 5775 5775 5775 5775 5776 5776 5776 5777 5777 5778 5779 5779 5780 5780 5781 5781 5781 5781 5781 5782 5782 5782 5782 5782 5781 5780 5780 5779 5778 5778 5776 5775 5774 5772 5771
5770 5770 5771 5771 5771 5771 5771 5771 5771 5771 5772 5773 5773 5774 5774 5774 5775 5775 5775 5775 5775 5775 5776 5776 5776 5776 5775 5774 5774 5773 5772 5771 5770 5769 5767 5766 5765 5764
5766 5766 5765 5766 5766 5766 5766 5766 5766 5767 5767 5767 5768 5768 5768 5769 5769 5769 5769 5769 5770 5771 5770 5770 5769 5769 5768 5768 5767 5766 5765 5763 5762 5761 5759 5758 5757 5756
5761 5761 5761 5761 5761 5761 5761 5761 5762 5762 5762 5762 5762 5763 5763 5764 5764 5764 5763 5764 5764 5764 5763 5763 5763 5762 5762 5761 5760 5759 5758 5756 5755 5753 5752 5751 5750 5748
5757 5756 5756 5756 5756 5756 5756 5756 5756 5757 5757 5757 5758 5758 5758 5758 5758 5758 5758 5758 5758 5758 5758 5758 5757 5756 5755 5754 5753 5752 5750 5749 5747 5746 5745 5743 5742 5740
5752 5752 5752 5752 5751 5751 5751 5751 5751 5751 5751 5751 5752 5752 5752 5752 5753 5752 5752 5752 5752 5752 5752 5752 5751 5750 5749 5747 5746 5745 5743 5742 5740 5739 5737 5736 5734 5733
5748 5748 5747 5747 5747 5746 5746 5746 5746 5745 5745 5745 5746 5746 5746 5746 5746 5746 5746 5745 5745 5746 5745 5745 5744 5743 5742 5741 5739 5737 5736 5735 5733 5732 5730 5728 5727 5725
5743 5743 5742 5742 5742 5741 5741 5740 5740 5740 5739 5739 5740 5740 5740 5740 5739 5739 5739 5739 5739 5739 5738 5737 5737 5736 5735 5734 5732 5730 5728 5727 5725 5724 5723 5721 5719 5718
5738 5738 5737 5737 5736 5736 5736 5735 5734 5734 5733 5733 5733 5733 5733 5733 5733 5732 5731 5731 5731 5731 5730 5729 5729 5728 5727 5726 5725 5723 5721 5719 5717 5716 5715 5713 5711 5710
5733 5733 5732 5732 5731 5731 5730 5729 5729 5728 5727 5727 5727 5727 5727 5726 5725 5725 5724 5723 5723 5722 5721 5720 5720 5719 5719 5718 5716 5715 5713 5712 5710 5708 5707 5706 5704 5702
5728 5727 5727 5726 5725 5725 5724 5723 5722 5722 5721 5721 5721 5720 5719 5719 5718 5718 5717 5716 5715 5714 5713 5712 5711 5710 5710 5709 5707 5706 5705 5704 5702 5701 5699 5698 5696 5694
5722 5722 5721 5720 5720 5719 5718 5717 5716 5716 5715 5715 5715 5714 5713 5712 5711 5710 5710 5709 5707 5706 5705 5704 5703 5702 5701 5700 5699 5698 5697 5696 5694 5693 5691 5690 5688 5686
5716 5716 5715 5714 5714 5713 5712 5712 5711 5710 5709 5709 5708 5707 5706 5705 5704 5703 5702 5701 5700 5698 5697 5696 5695 5694 5694 5693 5692 5690 5689 5688 5686 5685 5683 5682 5680 5679
5711 5710 5710 5709 5708 5707 5706 5706 5705 5704 5703 5702 5701 5701 5700 5699 5697 5696 5695 5694 5693 5692 5690 5689 5688 5687 5687 5686 5685 5684 5682 5681 5679 5678 5676 5674 5673 5671
5706 5705 5704 5704 5703 5702 5701 5699 5699 5698 5697 5696 5695 5694 5693 5692 5691 5690 5689 5688 5686 5685 5684 5683 5682 5681 5680 5680 5678 5677 5675 5674 5672 5670 5669 5667 5665 5663
5701 5700 5699 5698 5697 5696 5695 5694 5692 5691 5691 5690 5689 5688 5687 5686 5684 5683 5682 5681 5680 5679 5677 5676 5675 5674 5674 5673 5671 5670 5668 5666 5664 5663 5661 5659 5657 5655
5695 5695 5694 5693 5692 5691 5689 5688 5687 5686 5685 5683 5682 5681 5681 5679 5678 5676 5675 5674 5673 5672 5670 5669 5668 5667 5667 5665 5664 5663 5661 5659 5657 5655 5653 5651 5649 5648
5689 5689 5688 5687 5686 5685 5684 5682 5681 5680 5679 5677 5676 5675 5674 5673 5671 5670 5668 5667 5666 5665 5664 5662 5661 5660 5659 5658 5656 5655 5653 5651 5649 5647 5645 5643 5642 5640